|   |  | Asteroid 2014 QD364
					
					
					
					
						
					
					
						
							(Preview) 
						
							
								The 10 - 22 metre wide asteroid 2014 QD364 will make a close pass (26.5 LD, 0.0680 AU) travelling at 2.33 km/second, to the Earth-Moon system on the 1st April 2015 @ 10:24 UT ±00:24.  See more The Lunar Distance (LD), the distance between Earth and the Moon, equals 384,401 km, (or 0.00256 AU). | Blobrana | 0 |  |  | 
		
			
			
				
				
					|   |  | Asteroid 2015 FW117
					
					
					
					
						
					
					
						
							(Preview) 
						
							
								Orbital elements:
2015 FW117                                               Earth MOID = 0.0090 AU
Epoch 2015 June 27.0 TT = JDT 2457200.5                 MPC
M   9.82733              (2000.0)            P               Q
n   1.23945368     Peri.  315.88146     +0.81677409     +0.56799996
a   0.8583199      Node    10.95601     -0.25788410     +0.51642613
e   0.3820381      Incl.   32.19880     -0.51611614     +0.64084328
P   0.80           H   22.9           G... | Blobrana | 1 |  |  | 
		
			
			
				
				
					|   |  | Asteroid 2015 FW284
					
					
					
					
						
					
					
						
							(Preview) 
						
							
								The 30 - 67 metre wide asteroid 2015 FW284 will make a close pass (11.5 LD, 0.0296 AU) travelling at 14.85 km/second, to the Earth-Moon system on the 1st April 2015 @ 20:54 UT ±00:01.  See more The Lunar Distance (LD), the distance between Earth and the Moon, equals 384,401 km, (or 0.00256 AU). | Blobrana | 0 |  |  | 
		
			
			
				
				
					|   |  | Asteroid (162080) 1998 DG16
					
					
					
					
						
					
					
						
							(Preview) 
						
							
								The 280 - 620 metre wide asteroid (162080) 1998 DG16 will make a close pass (74.0 LD, 0.1901 AU) travelling at 11.15 km/second, to the Earth-Moon system on the 1st April 2015 @ 22:24 UT ±00:01.  See more The Lunar Distance (LD), the distance between Earth and the Moon, equals 384,401 km, (or 0.00256 AU)... | Blobrana | 0 |  |  | 
		
			
			
				
				
					|   |  | Asteroid 2015 FC34
					
					
					
					
						
					
					
						
							(Preview) 
						
							
								Orbital elements:
2015 FC34                                                Earth MOID = 0.0067 AU
Epoch 2015 June 27.0 TT = JDT 2457200.5                 MPC
M  17.22360              (2000.0)            P               Q
n   0.44984626     Peri.   79.93804     -0.08052187     +0.99657881
a   1.6869154      Node   185.54593     -0.97325955     -0.08264338
e   0.5795562      Incl.   11.11181     -0.21513270     +0.00086954
P   2.19           H   23.0           G... | Blobrana | 1 |  |  | 
		
			
			
				
				
					|   |   | Asteroid 2015 FV284
					
					
					
					
						
					
					
						
							(Preview) 
						
							
								Orbital elements:
2015 FV284                                          PHA, Earth MOID = 0.0180 AU
Epoch 2015 June 27.0 TT = JDT 2457200.5                 MPC
M  68.02699              (2000.0)            P               Q
n   0.43472451     Peri.  148.32107     -0.27437924     -0.95625104
a   1.7258113      Node   317.36484     +0.84801135     -0.19084771
e   0.4716362      Incl.    8.61749     +0.45342340     -0.22172303
P   2.27           H... | Blobrana | 0 |  |  | 
		
			
			
				
				
					|   |  | Aasteroid 2004 MO3
					
					
					
					
						
					
					
						
							(Preview) 
						
							
								The 97 - 220 metre wide asteroid 2004 MO3 will make a close pass (71.6 LD, 0.1840 AU) travelling at 8.28 km/second, to the Earth-Moon system on the 31st March 2015 @ 16:23 UT ±00:03.  See more The Lunar Distance (LD), the distance between Earth and the Moon, equals 384,401 km, (or 0.00256 AU).   | Blobrana | 0 |  |  | 
		
			
			
				
				
					|   |  | Asteroid 2015 FU284
					
					
					
					
						
					
					
						
							(Preview) 
						
							
								Orbital elements:
2015 FU284                                               Earth MOID = 0.0021 AU
Epoch 2015 June 27.0 TT = JDT 2457200.5                 MPC
M  42.60811              (2000.0)            P               Q
n   0.94883897     Peri.  123.10175     +0.47706544     +0.87862286
a   1.0256701      Node   175.24808     -0.86648626     +0.47416198
e   0.5748563      Incl.   14.50362     -0.14700385     +0.05650027
P   1.04           H   28.... | Blobrana | 0 |  |  | 
		
			
			
				
				
					|   |  | Asteroid 2015 FE120
					
					
					
					
						
					
					
						
							(Preview) 
						
							
								Orbital elements:
2015 FE120                                          PHA, Earth MOID = 0.0116 AU
Epoch 2015 June 27.0 TT = JDT 2457200.5                 MPC
M  14.95999              (2000.0)            P               Q
n   0.29235863     Peri.  188.92987     -0.86639001     +0.47870119
a   2.2483233      Node    21.53474     -0.43091279     -0.57280468
e   0.5509378      Incl.   22.78827     -0.25235396     -0.66538709
P   3.37           H... | Blobrana | 0 |  |  | 
		
			
			
				
				
					|   |  | Asteroid 2015 FP34
					
					
					
					
						
					
					
						
							(Preview) 
						
							
								The 31 - 68 metre wide asteroid 2015 FP34 will make a close pass (33.0 LD, 0.0847 AU) travelling at 9.47 km/second, to the Earth-Moon system on the 30th March 2015 @ 04:05 UT ±00:03.  See more The Lunar Distance (LD), the distance between Earth and the Moon, equals 384,401 km, (or 0.00256 AU). | Blobrana | 0 |  |  | 
		
			
			
				
				
					|   |  | Asteroid 2015 FT118
					
					
					
					
						
					
					
						
							(Preview) 
						
							
								Orbital elements:
2015 FT118                                          PHA, Earth MOID = 0.0410 AU
Epoch 2015 June 27.0 TT = JDT 2457200.5                 MPC
M 299.16795              (2000.0)            P               Q
n   0.78591013     Peri.  155.35874     +0.98239032     +0.15647091
a   1.1629315      Node   196.63091     -0.16290171     +0.98493800
e   0.1901472      Incl.   20.90172     +0.09150027     +0.07357989
P   1.2... | Blobrana | 0 |  |  | 
		
			
			
				
				
					|   |  | Asteroid 2015 FM118
					
					
					
					
						
					
					
						
							(Preview) 
						
							
								Orbital elements:
2015 FM118                                               Earth MOID = 0.0011 AU
Epoch 2015 June 27.0 TT = JDT 2457200.5                 MPC
M  24.32966              (2000.0)            P               Q
n   0.34364429     Peri.   27.08389     -0.84717643     +0.53130696
a   2.0186606      Node   185.01164     -0.49199355     -0.78606781
e   0.5208595      Incl.    1.46881     -0.20058525     -0.31592769
P   2.87           H   28.6           G... | Blobrana | 1 |  |  | 
		
			
			
				
				
					|   |  | Asteroid 2015 FP118
					
					
					
					
						
					
					
						
							(Preview) 
						
							
								Orbital elements:
2015 FP118                                          PHA, Earth MOID = 0.0367 AU
Epoch 2015 June 27.0 TT = JDT 2457200.5                 MPC
M 356.98417              (2000.0)            P               Q
n   0.28419657     Peri.  104.71449     +0.60228381     +0.79807876
a   2.2911674      Node   202.34880     -0.74942851     +0.55750804
e   0.5733432      Incl.    2.71540     -0.27497475     +0.22859371
P   3.47... | Blobrana | 0 |  |  | 
		
			
			
				
				
					|   |  | Asteroid 2015 FP
					
					
					
					
						
					
					
						
							(Preview) 
						
							
								The 25 - 55 metre wide asteroid 2015 FP will make a close pass (9.6 LD, 0.0248 AU) travelling at 7.49 km/second, to the Earth-Moon system on the 28th March 2015 @ 04:23 UT ±00:01.  See more The Lunar Distance (LD), the distance between Earth and the Moon, equals 384,401 km, (or 0.00256 AU). | Blobrana | 0 |  |  | 
		
			
			
				
				
					|   |  | Asteroid 2015 FF36
					
					
					
					
						
					
					
						
							(Preview) 
						
							
								Orbital elements:
2015 FF36                                                Earth MOID = 0.0002 AU
Epoch 2015 June 27.0 TT = JDT 2457200.5                 MPC
M  23.28852              (2000.0)            P               Q
n   0.32682522     Peri.  205.34067     -0.85136222     +0.52457816
a   2.0873359      Node     6.29921     -0.48075655     -0.77997973
e   0.5334905      Incl.    0.17939     -0.20989405     -0.34124680
P   3.02           H   26.5           G   0.... | Blobrana | 1 |  |  |